Hourly Data Report for October 02, 2014

All times are specified in Local Standard Time (LST). Add 1 hour to adjust for Daylight Saving Time where and when it is observed.

QIKIQTARJUAQ A
NUNAVUT

67°32'48.000" N
64°01'54.000" W
5.50 m
2400577
YVM

Download Data

Hourly Data (October 2014)
Hourly Data Report for October 2, 2014
Temp Definition
°C
Dew Point Temp Definition
°C
Rel Hum Definition
%
Wind Dir Definition
10's deg

Wind Spd Definition
km/h
Visibility Definition
km
Stn Press Definition
kPa
Hmdx Definition


Wind Chill Definition


Weather Definition


TIME
00:00 Legend Double Dagger -6.9 -12.7 64 20 17 16.1 100.90   -13 LegendNANA
01:00 Legend Double Dagger -7.5 -13.7 62 14 11 LegendMM 100.93   -13 LegendNANA
02:00 Legend Double Dagger -8.1 -13.9 64 18 5 16.1 100.95   -11 LegendNANA
03:00 Legend Double Dagger -6.1 -13.3 57 18 26 16.1 100.94   -14 LegendNANA
04:00 Legend Double Dagger -8.2 -14.1 63 13 8 16.1 100.97   -12 LegendNANA
05:00 Legend Double Dagger -9.1 -14.3 66 14 5 16.1 100.99   -12 LegendNANA
06:00 Legend Double Dagger -8.6 -14.1 65 14 5 16.1 100.96   -11 LegendNANA
07:00 Legend Double Dagger -8.6 -13.7 67 14 5 LegendMM 100.97   -11 LegendNANA
08:00 Legend Double Dagger -7.9 -12.6 69 15 5 16.1 100.94   -11 LegendNANA
09:00 Legend Double Dagger -6.7 -12.3 65 13 9 16.1 100.96   -11 LegendNANA
10:00 Legend Double Dagger -5.7 -11.8 62 15 5 16.1 100.98   -8 LegendNANA
11:00 Legend Double Dagger -5.3 -12.0 59 15 5 LegendMM 100.96   -8 LegendNANA
12:00 Legend Double Dagger -4.7 -11.8 58 14 5 16.1 100.96   -7 LegendNANA
13:00 Legend Double Dagger -5.2 -11.5 62 14 5 16.1 100.95   -7 LegendNANA
14:00 Legend Double Dagger -5.8 -11.0 67 14 8 16.1 100.97   -10 LegendNANA
15:00 Legend Double Dagger -6.2 -11.5 66 16 5 16.1 100.98   -9 LegendNANA
16:00 Legend Double Dagger -6.8 -11.4 70 LegendMM 4 16.1 101.01   -9 LegendNANA
17:00 Legend Double Dagger -7.4 -11.8 71 15 8 16.1 101.01   -11 LegendNANA
18:00 Legend Double Dagger -7.2 -12.3 67 16 9 16.1 101.01   -12 LegendNANA
19:00 Legend Double Dagger -7.1 -12.6 65 15 8 16.1 101.01   -11 LegendNANA
20:00 Legend Double Dagger -6.8 -12.9 62 16 8 16.1 100.98   -11 LegendNANA
21:00 Legend Double Dagger -6.2 -12.3 62 16 8 16.1 100.97   -10 LegendNANA
22:00 Legend Double Dagger -7.6 -12.3 69 16 5 16.1 100.97   -10 LegendNANA
23:00 Legend Double Dagger -5.7 -12.1 61   0 16.1 100.95     LegendNANA

Notes on Data Quality.

Legend

  • E = Estimated
  • M = Missing
  • NA = Not Available
  • ‡ = Partner data that is not subject to review by the National Climate Archives
Date modified: